Location: Rounton
(54.4000°N, 1.3500°W)
Time: 11:18:41
(UTC+00:00)

Vanguard 1 Rocket - All Passes

Search period start: 22 February 2024 00:00
Search period end: 03 March 2024 00:00
Orbit: 654 x 4218 km, 34.3° (Epoch: 21 February)

Date Brightness Start Highest point End Pass type
(mag) Time Alt. Az. Time Alt. Az. Time Alt. Az.
22 Feb - 07:57:13 10° SSW 08:05:54 17° SSE 08:12:11 10° SE daylight
22 Feb - 10:22:59 10° SW 10:30:53 20° S 10:36:17 10° SE daylight
22 Feb - 12:52:33 10° SW 12:54:27 11° SSW 12:56:10 10° SSW daylight
23 Feb - 06:45:54 10° S 06:53:40 14° SSE 06:59:46 10° SE daylight
23 Feb - 09:09:22 10° SW 09:19:16 22° S 09:25:48 10° SE daylight
23 Feb - 11:37:33 10° SW 11:43:33 17° SSW 11:47:54 10° SSE daylight
24 Feb - 05:38:20 10° SSE 05:41:15 11° SSE 05:43:57 10° SE visible
24 Feb - 07:56:04 10° SSW 08:07:15 21° SSE 08:14:47 10° ESE daylight
24 Feb - 10:23:22 10° SW 10:32:18 22° S 10:38:10 10° SE daylight
24 Feb - 12:54:44 10° SW 12:55:42 10° SW 12:56:37 10° SSW daylight
25 Feb - 06:43:35 10° SSW 06:54:54 19° SSE 07:03:01 10° ESE daylight
25 Feb - 09:09:16 10° SW 09:20:38 25° S 09:27:50 10° SE daylight
25 Feb - 11:38:31 10° WSW 11:44:51 17° SSW 11:49:26 10° SSE daylight
26 Feb - 05:32:44 10° S 05:42:20 15° SSE 05:49:55 10° ESE visible
26 Feb - 07:55:23 10° SW 08:08:33 25° S 08:17:00 10° ESE daylight
26 Feb - 10:23:53 10° WSW 10:33:37 23° SSW 10:39:54 10° SE daylight
27 Feb - 04:27:06 10° SSE 04:29:41 10° SE 04:32:08 10° SE visible
27 Feb - 06:42:07 10° SSW 06:56:04 23° SSE 07:05:32 10° ESE daylight
27 Feb - 09:09:22 10° SW 09:21:56 27° S 09:29:42 10° SE daylight
27 Feb - 11:39:34 10° WSW 11:46:02 17° SSW 11:50:44 10° S daylight
28 Feb - 05:30:02 10° S 05:43:21 20° SSE 05:53:11 10° ESE visible
28 Feb - 07:55:00 10° SW 08:09:46 29° S 08:18:59 10° ESE daylight
28 Feb - 10:24:30 10° WSW 10:34:50 24° SSW 10:41:29 10° SSE daylight
29 Feb - 04:20:10 10° S 04:30:32 15° SE 04:39:04 10° ESE visible
29 Feb - 06:41:09 10° SSW 06:57:12 28° SSE 07:07:42 10° ESE daylight
29 Feb - 09:09:35 10° WSW 09:23:09 29° S 09:31:25 10° SE daylight
29 Feb - 11:40:46 10° WSW 11:47:07 16° SW 11:51:50 10° S daylight
01 Mar - 05:28:16 10° SSW 05:44:18 24° SSE 05:55:41 10° ESE visible
01 Mar - 07:54:50 10° SW 08:10:56 32° S 08:20:47 10° ESE daylight
01 Mar - 10:25:11 10° WSW 10:35:58 24° SSW 10:42:54 10° SSE daylight
02 Mar - 04:17:00 10° S 04:31:17 20° SE 04:42:31 10° ESE visible
02 Mar - 06:40:32 10° SW 06:58:14 31° S 07:09:37 10° ESE daylight
02 Mar - 09:09:56 10° WSW 09:24:17 30° SSW 09:33:00 10° SE daylight
02 Mar - 11:42:10 10° WSW 11:48:04 15° SW 11:52:36 10° S daylight
